Regional Weather Roundup
Issued by NWS

Home | Current Version | Previous Version | Graphics & Text | Print | Product List | Glossary On
Versions: 1 2 3 4 5 6 7 8 9 10 11 12 13 14 15 16 17 18 19 20 21 22 23 24 25 26 27 28 29 30 31 32 33 34 35 36 37 38 39 40 41 42 43 44 45 46 47 48 49 50
612
ASUS43 KLOT 110108
RWRIL

ILLINOIS REGIONAL WEATHER ROUNDUP
NATIONAL WEATHER SERVICE CHICAGO/ROMEOVILLE IL
700 PM CST WED FEB 10 2016

NOTE: "FAIR" INDICATES FEW OR NO CLOUDS BELOW 12,000 FEET WITH NO
SIGNIFICANT WEATHER AND/OR OBSTRUCTIONS TO VISIBILITY.

* THESE STATIONS ARE NOT UNDER NWS QUALITY CONTROL. THEY ALSO MAY NOT
  REPORT WEATHER SUCH AS PRECIPITATION OR FOG.

ILZ001-002-007-009-015-016-024-110200-
NORTHWEST ILLINOIS

CITY           SKY/WX    TMP DP  RH WIND       PRES   REMARKS
MOLINE         PTCLDY    17   2  51 NW6       30.14R WCI   9
STERLING*      CLEAR     14   0  52 N6        30.11R WCI   5
SAVANNA*       CLEAR     12   1  62 N5        30.15R WCI   4
$$

ILZ003-004-008-010-011-017-018-110200-
NORTH CENTRAL ILLINOIS

CITY           SKY/WX    TMP DP  RH WIND       PRES   REMARKS
ROCKFORD       MOCLDY    14   1  56 N8        30.14R WCI   3
FREEPORT*      MOCLDY    10   2  70 W3        30.14R
ROCHELLE*      CLEAR     12   4  70 NW6       30.13R WCI   3
DE KALB*       PTCLDY    14   4  64 N6        30.11R WCI   5
$$

ILZ005-006-012>014-019>023-110200-
NORTHEAST ILLINOIS

CITY           SKY/WX    TMP DP  RH WIND       PRES   REMARKS
CHICAGO-OHARE  CLOUDY    14   2  58 N12       30.11R WCI   0
CHICAGO-MIDWAY MOCLDY    16   1  51 NW12      30.11R WCI   3
AURORA         PTCLDY    15   4  61 N8        30.12R WCI   4
LANSING*       CLOUDY    17   3  55 NW8       30.11R WCI   6
JOLIET*        PTCLDY    17   4  57 NW5       30.13R WCI  10
WAUKEGAN       CLOUDY    11   0  61 NW5       30.11R WCI   3
DUPAGE AIRPORT CLOUDY    13   0  56 N9        30.10R WCI   1
KANKAKEE*      PTCLDY    17   6  61 NW5       30.12R WCI  10
WHEELING       CLOUDY    12   1  61 NW10      30.14R WCI  -1
MORRIS*        PTCLDY    15   6  67 CALM      30.10R
ROMEOVILLE*    CLOUDY    16   4  60 N9        30.12R WCI   4
NORTHERLY ISL    N/A     16   4  59 N5          N/A  WCI   9
$$

LMZ740>746-110200-
SOUTHERN LAKE MICHIGAN

STATION/POSITION SKY/WX   TEMP    WIND        PRES    VSBY  WAVE
                          AIR SEA DIR/SP/G                  HT/PER
                          (F)     (DEG/KT/KT) (MB)    (MI)  (FT/S)
HARRISON CRIB              17     330/ 11/ 14   N/A
BURNHAM HARBOR             16     350/  4/ 12   N/A
CALUMET HARBOR             16                 1018.3R
BURNS HARBOR               18     330/  9/ 15 1019.3R
MICHIGAN CITY              17     290/ 11/ 14   N/A
$$

ILZ025>027-034>036-040-047-049-050-058-095>099-110200-
WEST-CENTRAL ILLINOIS

CITY           SKY/WX    TMP DP  RH WIND       PRES   REMARKS
QUINCY         CLOUDY    20  15  81 E3        30.13R
GALESBURG*     CLOUDY    17  10  75 W3        30.14R
MACOMB*        CLOUDY    19  14  82 W5        30.17R WCI  12
JACKSONVILLE*  CLOUDY    21  17  83 CALM      30.15R
PITTSFIELD*    CLOUDY    21  17  84 CALM      30.15R
$$

ILZ028>032-037-038-041>044-048-051>054-059>061-110200-
CENTRAL ILLINOIS

CITY           SKY/WX    TMP DP  RH WIND       PRES   REMARKS
PONTIAC        PTCLDY    17   9  71 W6        30.13R WCI   9
BLOOMINGTON    CLOUDY    18   7  62 W10       30.13R WCI   6
DECATUR        CLOUDY    20  10  65 W8        30.14R WCI  10
PEORIA         PTCLDY    18   4  54 W5        30.15R WCI  11
LACON*         CLEAR     17   4  58 W6        30.14R WCI   8
LINCOLN*       CLOUDY    20  10  66 CALM      30.15R
SPRINGFIELD    CLOUDY    20  15  81 W9        30.15R WCI   9
TAYLORVILLE    CLOUDY    19  16  86 W6        30.16R WCI  11
$$

ILZ033-039-045-046-055>057-062-063-110200-
EAST-CENTRAL ILLINOIS

CITY           SKY/WX    TMP DP  RH WIND       PRES   REMARKS
CHAMPAIGN      PTCLDY    19   8  62 W14       30.12R WCI   6
RANTOUL*       PTCLDY    20   8  58 NW8       30.12R WCI  11
MATTOON        CLOUDY    19   8  62 W9        30.13R WCI   8
PARIS*         PTCLDY    19  11  69 W7        30.14R WCI  10
$$

ILZ079-100>102-110200-
SOUTHWEST ILLINOIS

CITY           SKY/WX    TMP DP  RH WIND       PRES   REMARKS
ALTON          CLOUDY    19  18  93 SE6       30.15S WCI  11
BELLEVILLE     FLURRIES  21  19  91 S5        30.15S WCI  15
CAHOKIA*       FLURRIES  22  17  81 E5        30.16S WCI  16
SPARTA*        FLURRIES  21  19  91 E3        30.17S
$$

ILZ064>066-069>071-074>076-080>082-084>086-088>090-092>094-110200-
SOUTH-CENTRAL ILLINOIS

CITY           SKY/WX    TMP DP  RH WIND       PRES   REMARKS
CARBONDALE     LGT SNOW  22  18  85 CALM      30.18S FOG
CAIRO*         CLOUDY    24  22  93 CALM      30.19S
EFFINGHAM*     CLOUDY    20  16  83 SW8       30.18R WCI  11
MARION         LGT SNOW  23  21  93 CALM      30.19S
MT. VERNON     CLOUDY    19  12  73 SW5       30.17S WCI  13
CENTRALIA*     CLOUDY    21  19  91 S3        30.16S
SALEM*         CLOUDY    21  18  86 SW5       30.16S WCI  15
METROPOLIS*    CLOUDY    24  21  87 CALM      30.20S
$$

ILZ067-068-072-073-078-083-087-091-110200-
SOUTHEAST ILLINOIS

CITY           SKY/WX    TMP DP  RH WIND       PRES   REMARKS
LAWRENCEVILLE  CLOUDY    22  12  65 W16       30.17R WCI   8
FLORA*         LGT SNOW  22  19  87 SW3       30.18S
FAIRFIELD*     LGT SNOW  20  18  89 CALM      30.17S
HARRISBURG*    FLURRIES  22  19  88 CALM      30.20S
ROBINSON*      PTCLDY    21   9  60 W8        30.17R WCI  11
CARMI*         LGT SNOW  21  18  87 W6        30.19S WCI  13
$$

ABBREVIATIONS USED IN REMARKS
   TC - TEMPERATURE IN CELSIUS
  WCI - WIND CHILL INDEX
   HX - HEAT INDEX
  VSB - VISIBILITY
$$





USA.gov is the U.S. government's official web portal to all federal, state and local government web resources and services.